User: anonymous   Login
Location: SAPM � Hemmingford
(45.0500°N, 73.5833°W)
Time: 18:02:18
(UTC-05:00)
Language:

Cosmos 1674 Rocket - Orbit

View from above orbital plane
View from above orbital plane
View from above satellite
View from above satellite

Ground track
Ground track

The orbit data is extracted from the following two-line orbital elements,

1 15945U 85069B   17324.59016558 +.00000103 +00000-0 +93925-5 0  9995
2 15945 082.5269 346.5474 0021081 123.6566 236.6664 14.83950299723142
Epoch (UTC): 20 November 2017 14:09:50
Eccentricity: 0.0021081
inclination: 82.5269°
perigee height: 602 km
apogee height: 631 km
right ascension of ascending node: 346.5474°
argument of perigee: 123.6566°
revolutions per day: 14.83950299
mean anomaly at epoch: 236.6664°
orbit number at epoch: 72314

The dashed part of the orbit path shows where the satellite is in the earth's shadow,  

DLR